Meteo Giornale » Osservazioni meteo Egitto » Cairo

ore: 16:00 - Osservazioni Meteo Cairo
Lat. 30° 8' N Lon. 31° 24' E Alt. 64 metri s.l.m.

nuvoloso Africa/Cairo

33 °C

Nuvoloso

Temp. 24 Ore

24 °C

34 °C

Nord/Nord-Est

22.2 Km/h

Dew point 18 °C

Umidità 41 %

Visibilità  10 Km

Il sole sorge alle ore 05:41

Il sole tramonta alle ore 17:52

Data e Ora Cielo e Fenomeni T °C DP °C Um. % Pres. hPa Vis. km Vento km/h
Oggi h: 16:00 nuvoloso Nuvoloso 33 18 41 1012 10 N/NE 22.2
Oggi h: 15:00 nuvoloso Nuvoloso 33 17 38 1012 10 N 22.2
Oggi h: 14:30 nuvoloso Nuvoloso 33 18 41 1012 10 N 18.5
Oggi h: 14:00 nuvoloso Nuvoloso 33 18 41 1013 10 N 18.5
Oggi h: 13:30 nuvoloso Nuvoloso 33 18 41 1013 10 N 22.2
Oggi h: 13:00 nuvoloso Nuvoloso 33 18 41 1013 10 N 24
Oggi h: 12:30 nuvoloso Nuvoloso 33 17 38 1013 10 N/NE 22.2
Oggi h: 12:00 nuvoloso Nuvoloso 32 18 43 1014 10 N/NE 22.2
Oggi h: 11:30 nuvoloso Nuvoloso 31 18 45 1014 10 N 24
Oggi h: 11:00 nuvoloso Nuvoloso 31 18 45 1014 10 N/NE 24
Oggi h: 10:30 nuvoloso Nuvoloso 30 18 48 1014 10 N/NE 27.8
Oggi h: 10:00 nuvoloso Nuvoloso 29 19 54 1014 10 N/NE 25.9
Oggi h: 09:30 nuvoloso Nuvoloso 29 20 58 1014 10 N/NE 27.8
Oggi h: 09:00 nuvoloso Nuvoloso 28 20 61 1014 10 N/NE 29.6
Oggi h: 08:30 sereno Sereno 27 21 69 1014 10 N/NE 25.9
Oggi h: 08:00 sereno Sereno 26 21 73 1014 10 NE 27.8
Oggi h: 07:30 sereno Sereno 26 21 73 1014 10 NE 25.9
Oggi h: 07:00 sereno Sereno 25 21 78 1013 10 NE 13
Oggi h: 06:30 sereno Sereno 24 20 78 1013 10 N/NE 11.1
Oggi h: 06:00 sereno Sereno 24 20 78 1013 10 N/NE 16.7
Oggi h: 05:30 sereno Sereno 24 20 78 1013 10 NE 18.5
Oggi h: 05:00 sereno Sereno 24 20 78 1012 10 NE 22.2
Oggi h: 04:30 sereno Sereno 25 20 73 1012 10 NE 18.5
Oggi h: 04:00 sereno Sereno 25 20 73 1012 10 E/NE 22.2
Oggi h: 03:30 sereno Sereno 25 20 73 1012 10 E/NE 27.8
Oggi h: 03:00 sereno Sereno 25 20 73 1012 10 E/NE 25.9
Oggi h: 02:30 sereno Sereno 25 20 73 1012 10 E 25.9
Oggi h: 02:00 sereno Sereno 26 20 69 1012 10 E/NE 27.8
Oggi h: 01:30 sereno Sereno 26 20 69 1013 10 E/NE 27.8
Oggi h: 01:00 sereno Sereno 26 20 69 1013 10 E/NE 24
Oggi h: 00:30 sereno Sereno 26 20 69 1012 10 E/NE 25.9
Ieri h: 23:30 sereno Sereno 27 20 65 1013 10 NE 18.5
Ieri h: 23:00 sereno Sereno 27 19 61 1013 10 NE 22.2
Ieri h: 22:30 sereno Sereno 27 18 57 1013 10 NE 24
Ieri h: 22:00 sereno Sereno 28 18 54 1013 10 NE 22.2
Ieri h: 21:30 sereno Sereno 28 17 51 1012 10 NE 27.8
Ieri h: 21:00 sereno Sereno 29 17 48 1012 10 NE 29.6
Ieri h: 20:30 sereno Sereno 29 16 45 1012 10 NE 24
Ieri h: 20:00 sereno Sereno 30 15 40 1012 10 NE 25.9
Ieri h: 19:30 sereno Sereno 30 14 37 1011 10 NE 27.8
Ieri h: 19:00 sereno Sereno 31 12 31 1011 10 N/NE 29.6
Ieri h: 18:00 sereno Sereno 33 15 33 1010 10 N 18.5
Ieri h: 17:30 sereno Sereno 34 14 30 1010 10 N 14.8
Ieri h: 17:00 sereno Sereno 34 13 28 1010 10 N 16.7